TimeEDT,TemperatureF,Dew PointF,Humidity,Sea Level PressureIn,VisibilityMPH,Wind Direction,Wind SpeedMPH,Gust SpeedMPH,PrecipitationIn,Events,Conditions,WindDirDegrees,DateUTC
12:51 AM,66.0,62.1,87,30.08,5.0,South,5.8,-,N/A,,Overcast,170,2013-10-06 04:51:00
1:16 AM,64.4,62.6,94,30.08,6.0,SE,5.8,-,N/A,,Overcast,130,2013-10-06 05:16:00
1:51 AM,64.9,62.1,90,30.09,6.0,SSE,6.9,-,N/A,,Overcast,160,2013-10-06 05:51:00
2:51 AM,64.9,62.1,90,30.07,4.0,South,6.9,-,N/A,,Overcast,170,2013-10-06 06:51:00
3:51 AM,64.9,62.1,90,30.06,7.0,ESE,8.1,-,N/A,,Overcast,120,2013-10-06 07:51:00
4:51 AM,64.9,62.1,90,30.06,7.0,ESE,6.9,-,0.00,Rain,Light Rain,110,2013-10-06 08:51:00
5:51 AM,64.9,62.1,90,30.07,9.0,SE,6.9,-,0.01,,Overcast,130,2013-10-06 09:51:00
6:17 AM,64.4,62.6,94,30.07,2.0,SE,5.8,-,N/A,,Overcast,130,2013-10-06 10:17:00
6:44 AM,64.4,62.6,94,30.08,2.5,ESE,6.9,-,0.00,,Light Drizzle,120,2013-10-06 10:44:00
6:51 AM,64.9,63.0,93,30.08,2.5,SE,9.2,-,0.00,,Light Drizzle,140,2013-10-06 10:51:00
7:41 AM,64.4,62.6,94,30.07,1.5,SE,5.8,-,0.00,,Light Drizzle,130,2013-10-06 11:41:00
7:51 AM,64.9,63.0,93,30.09,1.5,ESE,9.2,-,0.00,,Light Drizzle,110,2013-10-06 11:51:00
8:06 AM,64.4,62.6,94,30.08,2.5,ESE,6.9,-,0.00,,Light Drizzle,120,2013-10-06 12:06:00
8:27 AM,64.4,62.6,94,30.09,1.5,ESE,8.1,-,0.00,,Light Drizzle,120,2013-10-06 12:27:00
8:51 AM,64.9,63.0,93,30.10,1.5,ESE,6.9,-,0.00,,Light Drizzle,120,2013-10-06 12:51:00
9:51 AM,66.0,63.0,90,30.10,1.5,East,9.2,-,0.00,,Light Drizzle,100,2013-10-06 13:51:00
10:24 AM,68.0,62.6,83,30.10,2.0,ESE,10.4,-,0.00,,Light Drizzle,110,2013-10-06 14:24:00
10:51 AM,66.9,63.0,87,30.10,2.0,East,9.2,-,0.00,,Light Drizzle,90,2013-10-06 14:51:00
11:51 AM,66.9,64.0,90,30.10,2.0,ESE,11.5,-,0.00,,Light Drizzle,120,2013-10-06 15:51:00
12:43 PM,68.0,64.4,88,30.09,2.5,ESE,10.4,-,0.00,,Light Drizzle,110,2013-10-06 16:43:00
12:51 PM,68.0,64.0,87,30.09,2.5,ESE,9.2,-,0.00,,Light Drizzle,120,2013-10-06 16:51:00
1:51 PM,66.9,64.0,90,30.07,2.5,East,11.5,-,0.00,,Light Drizzle,100,2013-10-06 17:51:00
2:51 PM,68.0,64.0,87,30.07,2.5,East,13.8,-,0.00,,Light Drizzle,90,2013-10-06 18:51:00
3:51 PM,68.0,64.0,87,30.07,2.5,East,10.4,-,0.00,,Overcast,80,2013-10-06 19:51:00
4:11 PM,68.0,64.4,88,30.07,5.0,East,11.5,-,N/A,,Overcast,90,2013-10-06 20:11:00
4:51 PM,68.0,64.0,87,30.06,5.0,East,11.5,-,N/A,,Overcast,90,2013-10-06 20:51:00
5:25 PM,68.0,64.4,88,30.05,5.0,East,10.4,-,N/A,,Overcast,80,2013-10-06 21:25:00
5:51 PM,68.0,64.0,87,30.06,5.0,ENE,8.1,-,N/A,,Overcast,70,2013-10-06 21:51:00
6:51 PM,69.1,64.0,84,30.06,7.0,East,9.2,-,N/A,,Overcast,90,2013-10-06 22:51:00
7:36 PM,69.8,64.4,83,30.06,2.5,East,9.2,-,N/A,,Haze,100,2013-10-06 23:36:00
7:51 PM,69.1,64.0,84,30.06,7.0,East,9.2,-,N/A,,Overcast,90,2013-10-06 23:51:00
8:51 PM,70.0,64.0,81,30.05,7.0,East,10.4,-,N/A,,Overcast,100,2013-10-07 00:51:00
9:51 PM,69.1,64.0,84,30.05,7.0,ESE,10.4,-,N/A,,Overcast,110,2013-10-07 01:51:00
10:51 PM,69.1,64.9,87,30.05,7.0,ESE,10.4,-,N/A,,Overcast,120,2013-10-07 02:51:00
11:47 PM,69.8,64.4,83,30.04,7.0,SE,9.2,-,N/A,,Mostly Cloudy,140,2013-10-07 03:47:00
11:51 PM,69.1,64.9,87,30.04,7.0,SE,8.1,-,N/A,,Mostly Cloudy,140,2013-10-07 03:51:00